(176567) = 2002 AU184 = 2006 QM12

Discovered at Palomar on 2002-01-08 by NEAT.

Orbit

Orbit type: Main Belt

Note: WebGL enabled browser required.

epoch2024-03-31.0
epoch JD2460400.5
perihelion date2023-08-30.15954
perihelion JD2460186.65954
argument of perihelion (°)264.81437
ascending node (°)106.58768
inclination (°)11.86422
eccentricity0.3015791
perihelion distance (AU)2.1853061
Tisserand w.r.t. Jupiter3.1
ΔV w.r.t. Earth (km/sec)10.0
semimajor axis (AU)3.1289242
mean anomaly (°)38.08037
mean daily motion (°/day)0.17807840
aphelion distance (AU)4.073
period (years)5.53
P-vector [x]0.95987448
P-vector [y]0.25725238
P-vector [z]-0.11163424
Q-vector [x]-0.19954297
Q-vector [y]0.90626050
Q-vector [z]0.37265869
absolute magnitude15.62
phase slope0.15
uncertainty0
referenceMPEC 2024-D136
observations used464
oppositions15
arc length (days)8143
first opposition used2001
last opposition used2024
residual rms (arc-secs)0.67
perturbers coarse indicatorM-v
perturbers precise indicator003Ek
first observation date used2001-11-12.0
last observation date used2024-02-28.0
computer nameMPCLINUX
JD of orbit computation2456700.203745
perihelion JD uncertainty (days)7.4431E-05
argument of perihelion uncertainty (°)4.2361E-05
ascending node uncertainty (°)3.6404E-05
inclination uncertainty (°)6.9453E-06
eccentricity uncertainty 6.6764E-08
perihelion distance uncertainty (AU)2.0567E-07
Minimum Orbit Intersection Distances (in AU)
for orbit epoch: 2460400.5, reference: E2024-DD6
Mercury1.83521
Venus1.47189
Earth1.22346
Mars0.84473
Jupiter1.6256
Saturn5.55056
Uranus14.5103
Neptune26.6172

Observations

471 total observations over interval: 2001 11 12.32474 – 2024 02 28.251811
These data are available for download (format description).

Date (UT) J2000 RA J2000 Dec Magn Location Ref
2001 11 12.32474 04 36 56.14 +07 48 38.2 18.8 R 699 – Lowell Observatory-LONEOS MPS 61193
2001 11 12.34833 04 36 55.00 +07 48 39.4   699 – Lowell Observatory-LONEOS MPS 61193
2001 11 12.37197 04 36 53.78 +07 48 39.7   699 – Lowell Observatory-LONEOS MPS 61193
2001 11 12.39567 04 36 52.64 +07 48 41.2   699 – Lowell Observatory-LONEOS MPS 61193
2001 11 21.52685 04 29 00.12 +07 58 55.8 19.3   608 – Haleakala-AMOS MPS 61193
2001 11 21.53765 04 28 59.51 +07 58 56.6 20.0   608 – Haleakala-AMOS MPS 61193
2001 11 21.54798 04 28 58.92 +07 58 58.3 19.6   608 – Haleakala-AMOS MPS 61193
2001 12 08.21795 04 13 53.40 +08 45 26.7 18.6 R 699 – Lowell Observatory-LONEOS MPS 61193
2001 12 08.24292 04 13 52.14 +08 45 32.1   699 – Lowell Observatory-LONEOS MPS 61193
2001 12 08.26793 04 13 50.75 +08 45 37.3   699 – Lowell Observatory-LONEOS MPS 61193
2001 12 08.29298 04 13 49.47 +08 45 43.7   699 – Lowell Observatory-LONEOS MPS 61193
2001 12 11.22533 04 11 24.23 +08 57 35.5 19.4   704 – Lincoln Laboratory ETS, New Mexico MPS 61193
2001 12 11.24055 04 11 23.66 +08 57 39.0 20.5   704 – Lincoln Laboratory ETS, New Mexico MPS 61193
2001 12 11.27102 04 11 21.99 +08 57 46.6 19.6   704 – Lincoln Laboratory ETS, New Mexico MPS 61193
2001 12 11.28626 04 11 21.14 +08 57 50.0 19.7   704 – Lincoln Laboratory ETS, New Mexico MPS 61193
2001 12 15.22784 04 08 19.49 +09 15 25.2 19.3   704 – Lincoln Laboratory ETS, New Mexico MPS 61193
2001 12 15.24318 04 08 18.86 +09 15 29.0 19.8   704 – Lincoln Laboratory ETS, New Mexico MPS 61193
2001 12 15.27430 04 08 17.40 +09 15 37.5 19.4   704 – Lincoln Laboratory ETS, New Mexico MPS 61193
2002 01 08.17284 03 57 47.01 +11 33 35.2 20.3   644 – Palomar Mountain/NEAT MPS 55313
2002 01 08.19311 03 57 46.83 +11 33 42.9 20.0   644 – Palomar Mountain/NEAT MPS 55313
2002 01 08.21362 03 57 46.65 +11 33 50.9 20.2   644 – Palomar Mountain/NEAT MPS 55313
2002 01 09.16586 03 57 40.61 +11 40 10.4 19.7   704 – Lincoln Laboratory ETS, New Mexico MPS 55313
2002 01 09.19667 03 57 40.43 +11 40 22.9 20.0   704 – Lincoln Laboratory ETS, New Mexico MPS 55313
2002 01 09.21211 03 57 40.31 +11 40 29.2 20.2   704 – Lincoln Laboratory ETS, New Mexico MPS 55313
2002 01 09.22796 03 57 40.22 +11 40 36.4 20.0   704 – Lincoln Laboratory ETS, New Mexico MPS 55313
2005 06 05.21867 15 39 48.63 -07 20 32.5 21.1 V 691 – Steward Observatory, Kitt Peak-Spacewatch MPS 178304
2005 06 05.23607 15 39 47.80 -07 20 32.5 20.7 V 691 – Steward Observatory, Kitt Peak-Spacewatch MPS 178304
2005 06 05.25691 15 39 46.86 -07 20 32.8 20.9 V 691 – Steward Observatory, Kitt Peak-Spacewatch MPS 178304
2006 07 18.64262 22 18 23.54 -20 27 28.8 18.9 V E12 – Siding Spring Survey MPS 178304
2006 07 18.65257 22 18 23.43 -20 27 34.3 19.1 V E12 – Siding Spring Survey MPS 178304
2006 07 18.66328 22 18 23.29 -20 27 39.8 19.1 V E12 – Siding Spring Survey MPS 178304
2006 07 18.67348 22 18 23.22 -20 27 45.0 19.6 V E12 – Siding Spring Survey MPS 178304
2006 08 16.63358 22 05 05.56 -25 07 33.0 18.1 V E12 – Siding Spring Survey MPS 176138
2006 08 16.63737 22 05 05.35 -25 07 35.1 18.4 V E12 – Siding Spring Survey MPS 176138
2006 08 16.64936 22 05 04.81 -25 07 41.8 18.4 V E12 – Siding Spring Survey MPS 176138
2006 08 16.65314 22 05 04.66 -25 07 44.0 18.6 V E12 – Siding Spring Survey MPS 176138
2006 08 16.66520 22 05 04.16 -25 07 51.1 18.7 V E12 – Siding Spring Survey MPS 176138
2006 08 16.66901 22 05 03.98 -25 07 52.8 18.4 V E12 – Siding Spring Survey MPS 176138
2006 08 16.68110 22 05 03.48 -25 07 59.8 18.3 V E12 – Siding Spring Survey MPS 176138
2006 08 16.68490 22 05 03.26 -25 08 01.2 19.2 V E12 – Siding Spring Survey MPS 176138
2006 08 20.28941 22 02 29.61 -25 41 12.8 18.3 R 644 – Palomar Mountain/NEAT MPS 176138
2006 08 20.30982 22 02 28.68 -25 41 23.7 18.1 R 644 – Palomar Mountain/NEAT MPS 176138
2006 08 20.33028 22 02 27.73 -25 41 34.7 18.3 R 644 – Palomar Mountain/NEAT MPS 176138
2006 08 23.33873 22 00 16.49 -26 07 42.0 18.8 R 644 – Palomar Mountain/NEAT MPS 175969
2006 08 23.35988 22 00 15.51 -26 07 52.7 18.2 R 644 – Palomar Mountain/NEAT MPS 175969
2006 08 23.38083 22 00 14.56 -26 08 02.3 19.0 R 644 – Palomar Mountain/NEAT MPS 175969
2006 08 24.26649 21 59 36.06 -26 15 26.4 18.1 R 644 – Palomar Mountain/NEAT MPS 176898
2006 08 24.28682 21 59 35.15 -26 15 36.5 18.0 R 644 – Palomar Mountain/NEAT MPS 176898
2006 08 24.30720 21 59 34.20 -26 15 46.6 18.6 R 644 – Palomar Mountain/NEAT MPS 176898
2006 09 09.27660 21 48 52.07 -27 59 18.5 18.6 R 644 – Palomar Mountain/NEAT MPS 178304
2006 09 09.29743 21 48 51.32 -27 59 24.3 18.4 R 644 – Palomar Mountain/NEAT MPS 178304
2006 09 09.31842 21 48 50.56 -27 59 29.7 18.8 R 644 – Palomar Mountain/NEAT MPS 178304
2006 09 15.19454 21 45 54.12 -28 21 23.6 18.3 R 644 – Palomar Mountain/NEAT MPS 179171
2006 09 15.21542 21 45 53.52 -28 21 27.3 19.2 R 644 – Palomar Mountain/NEAT MPS 179171
2006 09 15.23750 21 45 52.88 -28 21 31.5 18.8 R 644 – Palomar Mountain/NEAT MPS 179171
2007 11 11.45926 07 59 38.14 +18 35 18.8 20.8 V G96 – Mt. Lemmon Survey MPS 226729
2007 11 11.46710 07 59 38.29 +18 35 19.6 20.6 V G96 – Mt. Lemmon Survey MPS 226729
2007 11 11.47500 07 59 38.40 +18 35 20.4 20.3 V G96 – Mt. Lemmon Survey MPS 226729
2007 11 11.48281 07 59 38.47 +18 35 21.0 20.3 V G96 – Mt. Lemmon Survey MPS 226729
2008 01 20.11805 07 23 14.41 +23 47 31.2 20.3 V 691 – Steward Observatory, Kitt Peak-Spacewatch MPS 235031
2008 01 20.13620 07 23 13.43 +23 47 36.5 19.9 V 691 – Steward Observatory, Kitt Peak-Spacewatch MPS 235031
2008 01 20.15434 07 23 12.42 +23 47 41.7 20.5 V 691 – Steward Observatory, Kitt Peak-Spacewatch MPS 235031
2008 01 30.12686 07 14 58.73 +24 32 29.2 20.2 V 691 – Steward Observatory, Kitt Peak-Spacewatch MPS 235286
2008 01 30.14339 07 14 57.99 +24 32 33.3 20.1 V 691 – Steward Observatory, Kitt Peak-Spacewatch MPS 235286
2008 01 30.15995 07 14 57.17 +24 32 37.7 21.3 V 691 – Steward Observatory, Kitt Peak-Spacewatch MPS 235286
2008 02 08.24569 07 08 58.88 +25 06 06.0 20.6 V G96 – Mt. Lemmon Survey MPS 236156
2008 02 08.26197 07 08 58.30 +25 06 09.3 20.5 V G96 – Mt. Lemmon Survey MPS 236156
2008 02 08.27006 07 08 58.05 +25 06 11.1 20.2 V G96 – Mt. Lemmon Survey MPS 236156
2008 02 13.10667 07 06 32.90 +25 21 04.7 20.6 V 691 – Steward Observatory, Kitt Peak-Spacewatch MPS 237408
2008 02 13.12561 07 06 32.37 +25 21 08.3 20.4 V 691 – Steward Observatory, Kitt Peak-Spacewatch MPS 237408
2008 02 13.14456 07 06 31.86 +25 21 10.9 20.2 V 691 – Steward Observatory, Kitt Peak-Spacewatch MPS 237408
2009 02 02.48469 11 56 59.42 +14 05 55.3 21.4 V G96 – Mt. Lemmon Survey MPS 276124
2009 02 02.49145 11 56 59.28 +14 05 57.5 21.4 V G96 – Mt. Lemmon Survey MPS 276124
2009 02 02.49810 11 56 59.17 +14 06 00.5 21.8 V G96 – Mt. Lemmon Survey MPS 276124
2009 02 02.50485 11 56 58.99 +14 06 01.9 22.6 V G96 – Mt. Lemmon Survey MPS 276124
2009 03 16.29010 11 32 07.08 +18 12 42.5 21.5 V G96 – Mt. Lemmon Survey MPS 281134
2009 03 16.29971 11 32 06.72 +18 12 45.6 21.8 V G96 – Mt. Lemmon Survey MPS 281134
2009 03 16.30941 11 32 06.18 +18 12 48.2 21.3 V G96 – Mt. Lemmon Survey MPS 281134
2009 03 16.31910 11 32 05.82 +18 12 50.8 22.5 V G96 – Mt. Lemmon Survey MPS 281134
2012 09 01.541957 03 19 20.368 +01 49 38.86 19.0 z F51 – Pan-STARRS 1, Haleakala MPS 431277
2012 09 01.552578 03 19 20.842 +01 49 37.67 18.9 z F51 – Pan-STARRS 1, Haleakala MPS 431277
2012 09 15.38363 03 27 36.43 +01 10 36.2 19.6   704 – Lincoln Laboratory ETS, New Mexico MPS 432996
2012 09 15.39771 03 27 36.63 +01 10 32.8 20.0   704 – Lincoln Laboratory ETS, New Mexico MPS 432996
2012 09 15.41211 03 27 36.98 +01 10 29.1 20.1   704 – Lincoln Laboratory ETS, New Mexico MPS 432996
2012 09 22.33121 03 29 39.39 +00 45 15.3 19.8   704 – Lincoln Laboratory ETS, New Mexico MPS 433903
2012 09 22.36102 03 29 39.66 +00 45 10.3 20.4   704 – Lincoln Laboratory ETS, New Mexico MPS 433903
2012 09 22.37571 03 29 39.68 +00 45 06.3 20.4   704 – Lincoln Laboratory ETS, New Mexico MPS 433903
2012 09 22.39088 03 29 39.87 +00 45 01.6 19.3   704 – Lincoln Laboratory ETS, New Mexico MPS 433903
2012 10 10.602922 03 27 52.497 -00 26 53.89 18.4 z F51 – Pan-STARRS 1, Haleakala MPS 437305
